| time (UTC) | temp F | wind direction | speed knots | gust knots | rain 1hr in | rain 24hr in | rain mn in | humidity % | barometer mb |
| 20260510162237 | 78 | 195 | 3.5 | 6.1 | 0.00 | 0.00 | 0.00 | 46 | 1016.6 |
| 20260510161733 | 78 | 190 | 2.6 | 4.3 | 0.00 | 0.00 | 0.00 | 46 | 1016.9 |
| 20260510161229 | 78 | 194 | 6.1 | 7.0 | 0.00 | 0.00 | 0.00 | 47 | 1016.6 |
| 20260510160726 | 77 | 220 | 4.3 | 6.1 | 0.00 | 0.00 | 0.00 | 47 | 1016.6 |
| 20260510160226 | 77 | 218 | 4.3 | 7.0 | 0.00 | 0.00 | 0.00 | 48 | 1016.9 |
| 20260510155723 | 77 | 214 | 5.2 | 6.1 | 0.00 | 0.00 | 0.00 | 48 | 1016.9 |
| 20260510155218 | 77 | 209 | 4.3 | 6.1 | 0.00 | 0.00 | 0.00 | 50 | 1016.9 |
| 20260510154715 | 77 | 203 | 2.6 | 2.6 | 0.00 | 0.00 | 0.00 | 53 | 1016.9 |
| 20260510154211 | 77 | 232 | 0.9 | 2.6 | 0.00 | 0.00 | 0.00 | 53 | 1016.9 |
| 20260510153705 | 77 | 190 | 2.6 | 4.3 | 0.00 | 0.00 | 0.00 | 54 | 1016.6 |
| 20260510153202 | 77 | 189 | 0.9 | 1.7 | 0.00 | 0.00 | 0.00 | 56 | 1016.9 |
| 20260510152659 | 76 | 207 | 0.0 | 2.6 | 0.00 | 0.00 | 0.00 | 56 | 1016.9 |
| 20260510152155 | 76 | 190 | 0.9 | 2.6 | 0.00 | 0.00 | 0.00 | 58 | 1016.9 |
| 20260510151651 | 75 | 218 | 0.0 | 0.9 | 0.00 | 0.00 | 0.00 | 59 | 1017.3 |
| 20260510151150 | 75 | 219 | 0.0 | 0.9 | 0.00 | 0.00 | 0.00 | 60 | 1016.9 |
| 20260510150646 | 75 | 233 | 0.9 | 1.7 | 0.00 | 0.00 | 0.00 | 61 | 1017.3 |
| 20260510150141 | 74 | 203 | 0.9 | 0.9 | 0.00 | 0.00 | 0.00 | 62 | 1016.9 |
| 20260510145638 | 74 | 219 | 1.7 | 2.6 | 0.00 | 0.00 | 0.00 | 63 | 1017.3 |
| 20260510145134 | 74 | 193 | 1.7 | 2.6 | 0.00 | 0.00 | 0.00 | 64 | 1017.3 |
| 20260510144630 | 73 | 183 | 0.9 | 0.9 | 0.00 | 0.00 | 0.00 | 66 | 1017.3 |
| 20260510144126 | 72 | 209 | 3.5 | 4.3 | 0.00 | 0.00 | 0.00 | 69 | 1017.3 |
| 20260510143622 | 72 | 222 | 0.9 | 1.7 | 0.00 | 0.00 | 0.00 | 70 | 1017.3 |
| 20260510143119 | 72 | 221 | 0.0 | 1.7 | 0.00 | 0.00 | 0.00 | 71 | 1016.9 |
| 20260510142615 | 71 | 232 | 3.5 | 4.3 | 0.00 | 0.00 | 0.00 | 72 | 1016.9 |
| 20260510142112 | 72 | 194 | 1.7 | 2.6 | 0.00 | 0.00 | 0.00 | 72 | 1016.9 |
| 20260510141609 | 71 | 225 | 2.6 | 4.3 | 0.00 | 0.00 | 0.00 | 74 | 1016.9 |
| 20260510141107 | 71 | 221 | 0.0 | 2.6 | 0.00 | 0.00 | 0.00 | 75 | 1016.9 |
| 20260510140603 | 70 | 199 | 0.0 | 0.9 | 0.00 | 0.00 | 0.00 | 75 | 1016.9 |
| 20260510135558 | 70 | 217 | 3.5 | 4.3 | 0.00 | 0.00 | 0.00 | 76 | 1016.9 |
| 20260510135055 | 69 | 204 | 0.9 | 1.7 | 0.00 | 0.00 | 0.00 | 75 | 1016.9 |
| 20260510134552 | 69 | 199 | 0.9 | 1.7 | 0.00 | 0.00 | 0.00 | 76 | 1016.9 |
| 20260510134049 | 69 | 322 | 0.9 | 1.7 | 0.00 | 0.00 | 0.00 | 76 | 1016.9 |
| 20260510133544 | 69 | 203 | 0.0 | 4.3 | 0.00 | 0.00 | 0.00 | 77 | 1016.6 |
| 20260510133041 | 69 | 209 | 0.0 | 5.2 | 0.00 | 0.00 | 0.00 | 77 | 1016.9 |
| 20260510132538 | 68 | 206 | 0.0 | 1.7 | 0.00 | 0.00 | 0.00 | 77 | 1017.3 |
| 20260510132034 | 68 | 179 | 0.0 | 4.3 | 0.00 | 0.00 | 0.00 | 78 | 1016.9 |
| 20260510131532 | 68 | 216 | 3.5 | 6.1 | 0.00 | 0.00 | 0.00 | 80 | 1016.9 |
| 20260510131029 | 68 | 207 | 2.6 | 2.6 | 0.00 | 0.00 | 0.00 | 83 | 1016.9 |
| 20260510130525 | 67 | 305 | 1.7 | 2.6 | 0.00 | 0.00 | 0.00 | 83 | 1016.6 |
| 20260510130023 | 66 | 349 | 1.7 | 5.2 | 0.00 | 0.00 | 0.00 | 87 | 1016.9 |
| 20260510125519 | 65 | 327 | 1.7 | 7.0 | 0.00 | 0.00 | 0.00 | 90 | 1016.6 |
| 20260510125016 | 64 | 251 | 0.0 | 0.0 | 0.00 | 0.00 | 0.00 | 97 | 1016.6 |
| 20260510124512 | 63 | 239 | 0.0 | 0.0 | 0.00 | 0.00 | 0.00 | 99 | 1016.6 |
| 20260510124009 | 63 | 207 | 0.0 | 0.9 | 0.00 | 0.00 | 0.00 | 99 | 1016.6 |
| 20260510123504 | 62 | 193 | 0.0 | 0.0 | 0.00 | 0.00 | 0.00 | 99 | 1016.6 |
| 20260510123001 | 62 | 203 | 0.9 | 1.7 | 0.00 | 0.00 | 0.00 | 99 | 1016.6 |
| 20260510122456 | 62 | 201 | 0.9 | 2.6 | 0.00 | 0.00 | 0.00 | 99 | 1016.2 |
| 20260510121953 | 61 | 174 | 0.0 | 0.9 | 0.00 | 0.00 | 0.00 | 99 | 1016.6 |
| 20260510121450 | 61 | 138 | 0.0 | 0.0 | 0.00 | 0.00 | 0.00 | 99 | 1016.2 |
| 20260510120947 | 60 | 141 | 0.0 | 0.0 | 0.00 | 0.00 | 0.00 | 99 | 1016.6 |
| 20260510120445 | 60 | 123 | 0.0 | 0.0 | 0.00 | 0.00 | 0.00 | 99 | 1016.2 |
| 20260510115940 | 60 | 122 | 0.0 | 0.0 | 0.00 | 0.00 | 0.00 | 99 | 1016.2 |
| 20260510115437 | 59 | 90 | 0.0 | 0.0 | 0.00 | 0.00 | 0.00 | 99 | 1016.6 |
| 20260510114933 | 59 | 120 | 0.0 | 0.0 | 0.00 | 0.00 | 0.00 | 99 | 1016.2 |
| 20260510114430 | 59 | 120 | 0.0 | 0.0 | 0.00 | 0.00 | 0.00 | 99 | 1016.2 |
| 20260510113925 | 59 | 120 | 0.0 | 0.0 | 0.00 | 0.00 | 0.00 | 99 | 1016.2 |
| 20260510113421 | 58 | 120 | 0.0 | 0.0 | 0.00 | 0.00 | 0.00 | 99 | 1016.2 |
| 20260510112919 | 58 | 120 | 0.0 | 0.0 | 0.00 | 0.00 | 0.00 | 99 | 1015.9 |
| 20260510112417 | 58 | 120 | 0.0 | 0.0 | 0.00 | 0.00 | 0.00 | 99 | 1015.9 |
| 20260510111912 | 58 | 120 | 0.0 | 0.0 | 0.00 | 0.00 | 0.00 | 99 | 1015.9 |
| 20260510111408 | 58 | 120 | 0.0 | 0.0 | 0.00 | 0.00 | 0.00 | 99 | 1015.6 |
| 20260510110904 | 58 | 120 | 0.0 | 0.0 | 0.00 | 0.00 | 0.00 | 99 | 1015.6 |
| 20260510110401 | 58 | 123 | 0.0 | 0.0 | 0.00 | 0.00 | 0.00 | 99 | 1015.2 |
| 20260510105857 | 58 | 123 | 0.0 | 0.0 | 0.00 | 0.00 | 0.00 | 99 | 1015.2 |
| 20260510105356 | 58 | 123 | 0.0 | 0.0 | 0.00 | 0.00 | 0.00 | 99 | 1014.9 |
| 20260510104853 | 58 | 123 | 0.0 | 0.0 | 0.00 | 0.00 | 0.00 | 99 | 1015.2 |
| 20260510104350 | 58 | 123 | 0.0 | 0.0 | 0.00 | 0.00 | 0.00 | 99 | 1014.9 |
| 20260510103846 | 58 | 123 | 0.0 | 0.0 | 0.00 | 0.00 | 0.00 | 99 | 1014.9 |
| 20260510103343 | 58 | 123 | 0.0 | 0.0 | 0.00 | 0.00 | 0.00 | 99 | 1015.2 |
| 20260510102839 | 58 | 123 | 0.0 | 0.0 | 0.00 | 0.00 | 0.00 | 99 | 1015.2 |
| 20260510102335 | 58 | 123 | 0.0 | 0.0 | 0.00 | 0.00 | 0.00 | 99 | 1014.9 |
| 20260510101832 | 58 | 123 | 0.0 | 0.0 | 0.00 | 0.00 | 0.00 | 99 | 1014.9 |
| 20260510101330 | 59 | 123 | 0.0 | 0.0 | 0.00 | 0.00 | 0.00 | 99 | 1014.9 |
| 20260510100826 | 59 | 123 | 0.0 | 0.0 | 0.00 | 0.00 | 0.00 | 99 | 1014.6 |
| 20260510100324 | 59 | 123 | 0.0 | 0.0 | 0.00 | 0.00 | 0.00 | 99 | 1014.6 |
| 20260510095820 | 58 | 122 | 0.0 | 0.0 | 0.00 | 0.00 | 0.00 | 99 | 1014.6 |
| 20260510095315 | 59 | 123 | 0.0 | 0.0 | 0.00 | 0.00 | 0.00 | 99 | 1014.6 |
| 20260510094815 | 59 | 122 | 0.0 | 0.0 | 0.00 | 0.00 | 0.00 | 99 | 1014.9 |
| 20260510094310 | 59 | 122 | 0.0 | 0.0 | 0.00 | 0.00 | 0.00 | 99 | 1014.6 |
| 20260510093807 | 59 | 122 | 0.0 | 0.0 | 0.00 | 0.00 | 0.00 | 99 | 1014.6 |
| 20260510093303 | 59 | 122 | 0.0 | 0.0 | 0.00 | 0.00 | 0.00 | 99 | 1014.6 |
| 20260510092759 | 59 | 122 | 0.0 | 0.0 | 0.00 | 0.00 | 0.00 | 99 | 1014.2 |
| 20260510092255 | 59 | 122 | 0.0 | 0.0 | 0.00 | 0.00 | 0.00 | 99 | 1014.2 |
| 20260510091751 | 59 | 122 | 0.0 | 0.0 | 0.00 | 0.00 | 0.00 | 99 | 1014.2 |
| 20260510091248 | 59 | 122 | 0.0 | 0.0 | 0.00 | 0.00 | 0.00 | 99 | 1014.2 |
| 20260510090745 | 59 | 136 | 0.0 | 0.0 | 0.00 | 0.00 | 0.00 | 99 | 1014.2 |
| 20260510090242 | 59 | 136 | 0.0 | 0.0 | 0.00 | 0.00 | 0.00 | 99 | 1014.2 |
| 20260510085737 | 60 | 136 | 0.0 | 0.0 | 0.00 | 0.00 | 0.00 | 99 | 1014.2 |
| 20260510085232 | 60 | 136 | 0.0 | 0.0 | 0.00 | 0.00 | 0.00 | 99 | 1014.2 |
| 20260510084728 | 60 | 136 | 0.0 | 0.0 | 0.00 | 0.00 | 0.00 | 99 | 1013.9 |
| 20260510084225 | 60 | 136 | 0.0 | 0.0 | 0.00 | 0.00 | 0.00 | 99 | 1014.2 |
| 20260510083721 | 60 | 137 | 0.0 | 0.0 | 0.00 | 0.00 | 0.00 | 99 | 1013.9 |
| 20260510083219 | 60 | 136 | 0.0 | 0.0 | 0.00 | 0.00 | 0.00 | 99 | 1013.9 |
| 20260510082714 | 60 | 137 | 0.0 | 0.0 | 0.00 | 0.00 | 0.00 | 99 | 1014.2 |
| 20260510082211 | 60 | 137 | 0.0 | 0.0 | 0.00 | 0.00 | 0.00 | 99 | 1013.9 |
| 20260510081710 | 60 | 137 | 0.0 | 0.0 | 0.00 | 0.00 | 0.00 | 99 | 1013.9 |
| 20260510081207 | 60 | 137 | 0.0 | 0.0 | 0.00 | 0.00 | 0.00 | 99 | 1013.9 |
| 20260510080701 | 60 | 137 | 0.0 | 0.0 | 0.00 | 0.00 | 0.00 | 99 | 1013.9 |
| 20260510080158 | 60 | 136 | 0.0 | 0.0 | 0.00 | 0.00 | 0.00 | 99 | 1013.5 |
| 20260510075654 | 60 | 137 | 0.0 | 0.0 | 0.00 | 0.00 | 0.00 | 99 | 1013.5 |
| 20260510075152 | 60 | 137 | 0.0 | 0.0 | 0.00 | 0.00 | 0.00 | 99 | 1013.5 |
| 20260510074649 | 60 | 136 | 0.0 | 0.0 | 0.00 | 0.00 | 0.00 | 99 | 1013.5 |
| 20260510074144 | 60 | 136 | 0.0 | 0.0 | 0.00 | 0.00 | 0.00 | 99 | 1013.5 |
| 20260510073641 | 60 | 136 | 0.0 | 0.0 | 0.00 | 0.00 | 0.00 | 99 | 1013.2 |
| 20260510073137 | 60 | 136 | 0.0 | 0.0 | 0.00 | 0.00 | 0.00 | 99 | 1013.5 |
| 20260510072634 | 61 | 136 | 0.0 | 0.0 | 0.00 | 0.00 | 0.00 | 99 | 1013.5 |
| 20260510072130 | 61 | 136 | 0.0 | 0.0 | 0.00 | 0.00 | 0.00 | 99 | 1013.2 |
| 20260510071626 | 61 | 136 | 0.0 | 0.0 | 0.00 | 0.00 | 0.00 | 99 | 1013.5 |
| 20260510071124 | 61 | 136 | 0.0 | 0.0 | 0.00 | 0.00 | 0.00 | 99 | 1013.5 |
| 20260510070621 | 61 | 142 | 0.0 | 0.0 | 0.00 | 0.00 | 0.00 | 99 | 1013.9 |
| 20260510070119 | 61 | 145 | 0.0 | 0.0 | 0.00 | 0.00 | 0.00 | 99 | 1013.5 |
| 20260510065614 | 61 | 144 | 0.0 | 0.0 | 0.00 | 0.00 | 0.00 | 99 | 1013.5 |
| 20260510065110 | 61 | 145 | 0.0 | 0.0 | 0.00 | 0.00 | 0.00 | 99 | 1013.5 |
| 20260510064606 | 61 | 141 | 0.0 | 0.0 | 0.00 | 0.00 | 0.00 | 99 | 1013.5 |
| 20260510064103 | 60 | 141 | 0.0 | 0.0 | 0.00 | 0.00 | 0.00 | 99 | 1013.2 |
| 20260510063555 | 60 | 141 | 0.0 | 0.0 | 0.00 | 0.00 | 0.00 | 99 | 1013.2 |
| 20260510063052 | 60 | 140 | 0.0 | 0.0 | 0.00 | 0.00 | 0.00 | 99 | 1013.5 |
| 20260510062548 | 60 | 137 | 0.0 | 0.0 | 0.00 | 0.00 | 0.00 | 99 | 1013.5 |
| 20260510062043 | 60 | 64 | 0.0 | 0.0 | 0.00 | 0.00 | 0.00 | 99 | 1013.5 |
| 20260510061540 | 60 | 99 | 0.0 | 0.0 | 0.00 | 0.00 | 0.00 | 99 | 1013.5 |
| 20260510061037 | 61 | 146 | 0.0 | 0.0 | 0.00 | 0.00 | 0.00 | 99 | 1013.5 |
| 20260510060533 | 61 | 146 | 0.0 | 0.0 | 0.00 | 0.00 | 0.00 | 99 | 1013.5 |
| 20260510060029 | 61 | 148 | 0.0 | 0.0 | 0.00 | 0.00 | 0.00 | 99 | 1013.5 |
| 20260510055525 | 61 | 148 | 0.0 | 0.0 | 0.00 | 0.00 | 0.00 | 99 | 1013.5 |
| 20260510055024 | 61 | 149 | 0.0 | 0.0 | 0.00 | 0.00 | 0.00 | 99 | 1013.5 |
| 20260510054519 | 60 | 148 | 0.0 | 0.0 | 0.00 | 0.00 | 0.00 | 99 | 1013.5 |
| 20260510054014 | 61 | 148 | 0.0 | 0.0 | 0.00 | 0.00 | 0.00 | 99 | 1013.5 |
| 20260510053509 | 61 | 148 | 0.0 | 0.0 | 0.00 | 0.00 | 0.00 | 99 | 1013.9 |
| 20260510053007 | 61 | 149 | 0.0 | 0.0 | 0.00 | 0.00 | 0.00 | 99 | 1013.9 |
| 20260510052503 | 61 | 149 | 0.0 | 0.0 | 0.00 | 0.00 | 0.00 | 99 | 1014.2 |
| 20260510051959 | 61 | 148 | 0.0 | 0.0 | 0.00 | 0.00 | 0.00 | 98 | 1013.9 |
| 20260510051454 | 61 | 131 | 0.0 | 0.0 | 0.00 | 0.00 | 0.00 | 98 | 1013.9 |
| 20260510050951 | 62 | 154 | 0.0 | 0.0 | 0.00 | 0.00 | 0.00 | 98 | 1013.9 |
| 20260510050448 | 61 | 167 | 0.0 | 0.0 | 0.00 | 0.00 | 0.00 | 98 | 1013.9 |
| 20260510045945 | 61 | 167 | 0.0 | 0.0 | 0.00 | 0.00 | 0.00 | 98 | 1013.9 |
| 20260510045442 | 61 | 167 | 0.0 | 0.0 | 0.00 | 0.00 | 0.00 | 98 | 1014.2 |
| 20260510044939 | 62 | 167 | 0.0 | 0.0 | 0.00 | 0.00 | 0.00 | 98 | 1013.9 |
| 20260510044436 | 62 | 167 | 0.0 | 0.0 | 0.00 | 0.00 | 0.00 | 98 | 1013.9 |
| 20260510043932 | 62 | 167 | 0.0 | 0.0 | 0.00 | 0.00 | 0.00 | 97 | 1013.9 |
| 20260510043428 | 62 | 169 | 0.0 | 0.0 | 0.00 | 0.00 | 0.00 | 97 | 1014.2 |
| 20260510042927 | 62 | 169 | 0.0 | 0.0 | 0.00 | 0.00 | 0.00 | 97 | 1013.9 |
| 20260510042423 | 62 | 169 | 0.0 | 0.0 | 0.00 | 0.00 | 0.00 | 97 | 1013.9 |
| 20260510041918 | 62 | 169 | 0.0 | 0.0 | 0.00 | 0.00 | 0.00 | 97 | 1013.9 |
| 20260510041416 | 62 | 169 | 0.0 | 0.0 | 0.00 | 0.00 | 0.00 | 97 | 1013.9 |
| 20260510040914 | 62 | 169 | 0.0 | 0.0 | 0.00 | 0.00 | 0.00 | 97 | 1013.9 |
| 20260510040410 | 62 | 169 | 0.0 | 0.0 | 0.00 | 0.00 | 0.00 | 96 | 1013.9 |
| 20260510035905 | 62 | 169 | 0.0 | 0.0 | 0.00 | 0.00 | 0.00 | 96 | 1013.9 |
| 20260510035402 | 62 | 169 | 0.0 | 0.0 | 0.00 | 0.00 | 0.00 | 96 | 1013.9 |
| 20260510034857 | 62 | 168 | 0.0 | 0.0 | 0.00 | 0.00 | 0.00 | 96 | 1013.9 |
| 20260510034356 | 62 | 169 | 0.0 | 0.0 | 0.00 | 0.00 | 0.00 | 95 | 1013.9 |
| 20260510033851 | 63 | 169 | 0.0 | 0.0 | 0.00 | 0.00 | 0.00 | 95 | 1013.9 |
| 20260510033348 | 63 | 169 | 0.0 | 0.0 | 0.00 | 0.00 | 0.00 | 95 | 1013.9 |
| 20260510032844 | 63 | 169 | 0.0 | 0.0 | 0.00 | 0.00 | 0.00 | 94 | 1013.5 |
| 20260510032341 | 63 | 169 | 0.0 | 0.0 | 0.00 | 0.00 | 0.00 | 94 | 1013.9 |
| 20260510031837 | 63 | 169 | 0.0 | 0.0 | 0.00 | 0.00 | 0.00 | 94 | 1013.5 |
| 20260510031333 | 63 | 169 | 0.0 | 0.0 | 0.00 | 0.00 | 0.00 | 93 | 1013.5 |
| 20260510030832 | 63 | 169 | 0.0 | 0.0 | 0.00 | 0.00 | 0.00 | 93 | 1013.2 |
| 20260510030329 | 63 | 169 | 0.0 | 0.0 | 0.00 | 0.00 | 0.00 | 93 | 1013.2 |
| 20260510025826 | 64 | 169 | 0.0 | 0.0 | 0.00 | 0.00 | 0.00 | 93 | 1013.5 |
| 20260510025324 | 64 | 169 | 0.0 | 0.0 | 0.00 | 0.00 | 0.00 | 92 | 1013.2 |
| 20260510024820 | 64 | 165 | 0.0 | 0.0 | 0.00 | 0.00 | 0.00 | 92 | 1013.5 |
| 20260510024318 | 64 | 188 | 0.0 | 0.0 | 0.00 | 0.00 | 0.00 | 91 | 1013.2 |
| 20260510023813 | 64 | 188 | 0.0 | 0.0 | 0.00 | 0.00 | 0.00 | 91 | 1013.2 |
| 20260510023310 | 65 | 188 | 0.0 | 0.0 | 0.00 | 0.00 | 0.00 | 91 | 1013.5 |
| 20260510022807 | 65 | 189 | 0.0 | 0.0 | 0.00 | 0.00 | 0.00 | 90 | 1013.2 |
| 20260510022307 | 65 | 189 | 0.0 | 0.0 | 0.00 | 0.00 | 0.00 | 90 | 1013.5 |
| 20260510021806 | 65 | 190 | 0.0 | 0.0 | 0.00 | 0.00 | 0.00 | 90 | 1013.5 |
| 20260510021304 | 66 | 190 | 0.0 | 0.0 | 0.00 | 0.00 | 0.00 | 89 | 1013.2 |
| 20260510020759 | 66 | 190 | 0.0 | 0.0 | 0.00 | 0.00 | 0.00 | 88 | 1013.2 |
| 20260510020254 | 66 | 190 | 0.0 | 0.0 | 0.00 | 0.00 | 0.00 | 88 | 1013.2 |
| 20260510015750 | 66 | 189 | 0.0 | 0.0 | 0.00 | 0.00 | 0.00 | 88 | 1013.2 |
| 20260510015247 | 66 | 190 | 0.0 | 0.0 | 0.00 | 0.00 | 0.00 | 87 | 1013.2 |
| 20260510014741 | 66 | 190 | 0.0 | 0.0 | 0.00 | 0.00 | 0.00 | 87 | 1012.9 |
| 20260510014239 | 67 | 197 | 0.0 | 0.0 | 0.00 | 0.00 | 0.00 | 86 | 1013.2 |
| 20260510013735 | 67 | 196 | 0.0 | 0.0 | 0.00 | 0.00 | 0.00 | 85 | 1012.9 |
| 20260510013231 | 68 | 206 | 0.0 | 0.0 | 0.00 | 0.00 | 0.00 | 83 | 1012.9 |
| 20260510012725 | 68 | 176 | 0.0 | 0.0 | 0.00 | 0.00 | 0.00 | 81 | 1012.5 |
| 20260510012221 | 69 | 204 | 0.0 | 0.9 | 0.00 | 0.00 | 0.00 | 80 | 1012.5 |
| 20260510011720 | 69 | 178 | 0.0 | 1.7 | 0.00 | 0.00 | 0.00 | 80 | 1012.5 |
| 20260510011216 | 69 | 190 | 0.0 | 0.9 | 0.00 | 0.00 | 0.00 | 80 | 1012.5 |
| 20260510010713 | 69 | 204 | 2.6 | 2.6 | 0.00 | 0.00 | 0.00 | 80 | 1012.5 |
| 20260510010210 | 69 | 194 | 0.0 | 1.7 | 0.00 | 0.00 | 0.00 | 79 | 1012.5 |
| 20260510005707 | 69 | 168 | 0.9 | 1.7 | 0.00 | 0.00 | 0.00 | 79 | 1012.5 |
| 20260510005203 | 69 | 198 | 0.9 | 2.6 | 0.00 | 0.00 | 0.00 | 78 | 1012.5 |
| 20260510004702 | 69 | 191 | 2.6 | 2.6 | 0.00 | 0.00 | 0.00 | 78 | 1012.9 |
| 20260510004159 | 70 | 169 | 0.0 | 2.6 | 0.00 | 0.00 | 0.00 | 78 | 1012.5 |
| 20260510003656 | 69 | 188 | 0.0 | 0.0 | 0.00 | 0.00 | 0.00 | 78 | 1012.2 |
| 20260510003151 | 70 | 182 | 0.9 | 0.9 | 0.00 | 0.00 | 0.00 | 78 | 1012.5 |
| 20260510002646 | 70 | 195 | 0.9 | 0.9 | 0.00 | 0.00 | 0.00 | 76 | 1012.2 |
| 20260510002143 | 71 | 203 | 0.0 | 1.7 | 0.00 | 0.00 | 0.00 | 75 | 1012.2 |
| 20260510001640 | 71 | 189 | 1.7 | 2.6 | 0.00 | 0.00 | 0.00 | 75 | 1012.2 |
| 20260510001139 | 71 | 197 | 2.6 | 2.6 | 0.00 | 0.00 | 0.00 | 74 | 1011.8 |
| 20260510000639 | 71 | 194 | 1.7 | 2.6 | 0.00 | 0.00 | 0.00 | 73 | 1012.2 |
| 20260510000137 | 72 | 165 | 0.9 | 2.6 | 0.00 | 0.00 | 0.00 | 73 | 1012.2 |
| 20260509235632 | 72 | 195 | 3.5 | 4.3 | 0.00 | 0.00 | 0.00 | 72 | 1011.8 |
| 20260509235129 | 72 | 181 | 1.7 | 5.2 | 0.00 | 0.00 | 0.00 | 71 | 1011.8 |
| 20260509234625 | 73 | 210 | 4.3 | 5.2 | 0.00 | 0.00 | 0.00 | 71 | 1011.8 |
| 20260509234123 | 73 | 188 | 3.5 | 7.8 | 0.00 | 0.00 | 0.00 | 70 | 1011.5 |
| 20260509233621 | 73 | 186 | 3.5 | 4.3 | 0.00 | 0.00 | 0.00 | 69 | 1011.5 |
| 20260509233118 | 73 | 165 | 1.7 | 4.3 | 0.00 | 0.00 | 0.00 | 69 | 1011.5 |
| 20260509232614 | 73 | 195 | 1.7 | 6.1 | 0.00 | 0.00 | 0.00 | 69 | 1011.5 |
| 20260509232111 | 73 | 199 | 3.5 | 5.2 | 0.00 | 0.00 | 0.00 | 68 | 1011.5 |
| 20260509231608 | 74 | 198 | 6.1 | 6.1 | 0.00 | 0.00 | 0.00 | 67 | 1011.5 |
| 20260509231106 | 74 | 201 | 4.3 | 5.2 | 0.00 | 0.00 | 0.00 | 67 | 1011.5 |
| 20260509230602 | 74 | 201 | 6.1 | 6.1 | 0.00 | 0.00 | 0.00 | 67 | 1011.2 |
| 20260509230059 | 74 | 189 | 1.7 | 5.2 | 0.00 | 0.00 | 0.00 | 66 | 1011.8 |
| 20260509225555 | 74 | 209 | 4.3 | 7.0 | 0.00 | 0.00 | 0.00 | 65 | 1011.5 |
| 20260509225050 | 75 | 206 | 2.6 | 4.3 | 0.00 | 0.00 | 0.00 | 64 | 1011.5 |
| 20260509224546 | 75 | 213 | 3.5 | 7.0 | 0.00 | 0.00 | 0.00 | 64 | 1011.5 |
| 20260509224043 | 75 | 182 | 3.5 | 4.3 | 0.00 | 0.00 | 0.00 | 63 | 1011.5 |
| 20260509223540 | 74 | 187 | 4.3 | 6.1 | 0.00 | 0.00 | 0.00 | 64 | 1011.5 |
| 20260509223038 | 75 | 199 | 6.1 | 8.7 | 0.00 | 0.00 | 0.00 | 63 | 1011.2 |
| 20260509222533 | 75 | 201 | 4.3 | 11.3 | 0.00 | 0.00 | 0.00 | 63 | 1011.5 |
| 20260509222035 | 75 | 181 | 6.1 | 11.3 | 0.00 | 0.00 | 0.00 | 63 | 1011.5 |
| 20260509221525 | 75 | 192 | 0.0 | 7.8 | 0.00 | 0.00 | 0.00 | 62 | 1011.2 |
| 20260509221022 | 75 | 193 | 4.3 | 7.8 | 0.00 | 0.00 | 0.00 | 62 | 1011.2 |
| 20260509220518 | 74 | 196 | 4.3 | 7.8 | 0.00 | 0.00 | 0.00 | 62 | 1011.2 |
| 20260509220014 | 74 | 196 | 7.0 | 9.6 | 0.00 | 0.00 | 0.00 | 62 | 1011.5 |
| 20260509215509 | 74 | 191 | 6.1 | 8.7 | 0.00 | 0.00 | 0.00 | 62 | 1011.5 |
| 20260509215007 | 74 | 201 | 6.1 | 11.3 | 0.00 | 0.00 | 0.00 | 62 | 1011.5 |
| 20260509214504 | 74 | 219 | 5.2 | 7.8 | 0.00 | 0.00 | 0.00 | 62 | 1011.5 |
| 20260509214001 | 74 | 230 | 7.0 | 7.8 | 0.00 | 0.00 | 0.00 | 62 | 1011.2 |
| 20260509213457 | 75 | 228 | 5.2 | 7.0 | 0.00 | 0.00 | 0.00 | 62 | 1011.2 |
| 20260509212954 | 75 | 223 | 6.1 | 8.7 | 0.00 | 0.00 | 0.00 | 61 | 1011.2 |
| 20260509212451 | 75 | 193 | 4.3 | 12.2 | 0.00 | 0.00 | 0.00 | 61 | 1011.2 |
| 20260509211948 | 75 | 195 | 3.5 | 6.1 | 0.00 | 0.00 | 0.00 | 61 | 1011.2 |
| 20260509211443 | 75 | 213 | 5.2 | 6.1 | 0.00 | 0.00 | 0.00 | 61 | 1011.2 |
| 20260509210940 | 74 | 216 | 3.5 | 5.2 | 0.00 | 0.00 | 0.00 | 61 | 1011.2 |
| 20260509210437 | 74 | 190 | 2.6 | 6.1 | 0.00 | 0.00 | 0.00 | 62 | 1011.2 |
| 20260509205932 | 74 | 205 | 2.6 | 6.1 | 0.00 | 0.00 | 0.00 | 61 | 1011.2 |
| 20260509205427 | 74 | 195 | 1.7 | 5.2 | 0.00 | 0.00 | 0.00 | 61 | 1011.2 |
| 20260509204923 | 74 | 110 | 4.3 | 11.3 | 0.00 | 0.00 | 0.00 | 61 | 1011.2 |
| 20260509204420 | 74 | 211 | 9.6 | 11.3 | 0.00 | 0.00 | 0.00 | 61 | 1011.2 |
| 20260509203917 | 74 | 195 | 6.1 | 7.8 | 0.00 | 0.00 | 0.00 | 60 | 1011.2 |
| 20260509203412 | 75 | 222 | 6.1 | 7.8 | 0.00 | 0.00 | 0.00 | 60 | 1011.2 |
| 20260509202910 | 75 | 209 | 5.2 | 6.1 | 0.00 | 0.00 | 0.00 | 60 | 1011.2 |
| 20260509202406 | 74 | 193 | 6.1 | 9.6 | 0.00 | 0.00 | 0.00 | 60 | 1011.2 |
| 20260509201901 | 74 | 199 | 5.2 | 9.6 | 0.00 | 0.00 | 0.00 | 61 | 1011.2 |
| 20260509201356 | 74 | 193 | 6.1 | 8.7 | 0.00 | 0.00 | 0.00 | 61 | 1011.2 |
| 20260509200854 | 74 | 193 | 2.6 | 8.7 | 0.00 | 0.00 | 0.00 | 62 | 1011.2 |
| 20260509200348 | 74 | 161 | 3.5 | 4.3 | 0.00 | 0.00 | 0.00 | 62 | 1011.5 |
| 20260509195846 | 74 | 201 | 5.2 | 7.8 | 0.00 | 0.00 | 0.00 | 63 | 1011.2 |
| 20260509195346 | 73 | 197 | 4.3 | 6.1 | 0.00 | 0.00 | 0.00 | 63 | 1011.2 |
| 20260509194845 | 73 | 198 | 1.7 | 4.3 | 0.00 | 0.00 | 0.00 | 64 | 1011.5 |
| 20260509194342 | 73 | 188 | 2.6 | 5.2 | 0.00 | 0.00 | 0.00 | 64 | 1011.5 |
| 20260509193838 | 73 | 230 | 2.6 | 5.2 | 0.00 | 0.00 | 0.00 | 63 | 1011.5 |
| 20260509193338 | 73 | 213 | 3.5 | 5.2 | 0.00 | 0.00 | 0.00 | 63 | 1011.5 |
| 20260509192834 | 73 | 191 | 3.5 | 6.1 | 0.00 | 0.00 | 0.00 | 63 | 1011.5 |
| 20260509192330 | 73 | 221 | 2.6 | 5.2 | 0.00 | 0.00 | 0.00 | 64 | 1011.8 |
| 20260509191826 | 73 | 198 | 3.5 | 5.2 | 0.00 | 0.00 | 0.00 | 63 | 1011.8 |
| 20260509191322 | 73 | 216 | 4.3 | 7.0 | 0.00 | 0.00 | 0.00 | 64 | 1012.2 |
| 20260509190818 | 73 | 194 | 5.2 | 7.8 | 0.00 | 0.00 | 0.00 | 62 | 1011.8 |
| 20260509190315 | 74 | 226 | 2.6 | 9.6 | 0.00 | 0.00 | 0.00 | 62 | 1012.2 |
| 20260509185813 | 73 | 173 | 2.6 | 5.2 | 0.00 | 0.00 | 0.00 | 62 | 1012.2 |
| 20260509185309 | 73 | 200 | 5.2 | 11.3 | 0.00 | 0.00 | 0.00 | 61 | 1012.2 |
| 20260509184806 | 73 | 195 | 4.3 | 8.7 | 0.00 | 0.00 | 0.00 | 62 | 1012.2 |
| 20260509184304 | 73 | 197 | 3.5 | 6.1 | 0.00 | 0.00 | 0.00 | 64 | 1011.8 |
| 20260509183800 | 73 | 228 | 4.3 | 6.1 | 0.00 | 0.00 | 0.00 | 62 | 1012.2 |
| 20260509183255 | 73 | 230 | 6.1 | 8.7 | 0.00 | 0.00 | 0.00 | 61 | 1012.2 |
| 20260509182751 | 73 | 221 | 7.8 | 9.6 | 0.00 | 0.00 | 0.00 | 62 | 1012.2 |
| 20260509182248 | 72 | 199 | 6.1 | 9.6 | 0.00 | 0.00 | 0.00 | 64 | 1012.2 |
| 20260509181745 | 73 | 211 | 8.7 | 11.3 | 0.00 | 0.00 | 0.00 | 64 | 1012.2 |
| 20260509181243 | 73 | 110 | 4.3 | 8.7 | 0.00 | 0.00 | 0.00 | 62 | 1012.5 |
| 20260509180740 | 72 | 214 | 4.3 | 7.0 | 0.00 | 0.00 | 0.00 | 62 | 1012.5 |
| 20260509180236 | 72 | 220 | 7.0 | 11.3 | 0.00 | 0.00 | 0.00 | 64 | 1012.9 |
| 20260509175732 | 72 | 235 | 4.3 | 7.8 | 0.00 | 0.00 | 0.00 | 62 | 1012.9 |
| 20260509175229 | 73 | 211 | 7.0 | 8.7 | 0.00 | 0.00 | 0.00 | 62 | 1012.9 |
| 20260509174725 | 73 | 213 | 6.1 | 9.6 | 0.00 | 0.00 | 0.00 | 61 | 1012.9 |
| 20260509174220 | 72 | 211 | 5.2 | 8.7 | 0.00 | 0.00 | 0.00 | 62 | 1012.5 |
| 20260509173717 | 72 | 209 | 3.5 | 7.0 | 0.00 | 0.00 | 0.00 | 63 | 1012.9 |
| 20260509173213 | 72 | 195 | 5.2 | 12.2 | 0.00 | 0.00 | 0.00 | 62 | 1012.9 |
| 20260509172709 | 72 | 233 | 6.1 | 8.7 | 0.00 | 0.00 | 0.00 | 63 | 1012.9 |
| 20260509172205 | 72 | 218 | 2.6 | 6.1 | 0.00 | 0.00 | 0.00 | 62 | 1013.2 |
| 20260509171701 | 71 | 214 | 7.0 | 9.6 | 0.00 | 0.00 | 0.00 | 62 | 1013.2 |
| 20260509171157 | 72 | 227 | 4.3 | 9.6 | 0.00 | 0.00 | 0.00 | 62 | 1013.5 |
| 20260509170654 | 72 | 203 | 7.0 | 7.8 | 0.00 | 0.00 | 0.00 | 62 | 1013.2 |
| 20260509170150 | 71 | 193 | 5.2 | 7.8 | 0.00 | 0.00 | 0.00 | 62 | 1013.2 |
| 20260509165648 | 72 | 237 | 7.8 | 8.7 | 0.00 | 0.00 | 0.00 | 61 | 1013.2 |
| 20260509165144 | 72 | 185 | 6.1 | 8.7 | 0.00 | 0.00 | 0.00 | 61 | 1013.2 |
| 20260509164640 | 72 | 203 | 4.3 | 7.0 | 0.00 | 0.00 | 0.00 | 59 | 1013.2 |
| 20260509164136 | 72 | 179 | 9.6 | 13.0 | 0.00 | 0.00 | 0.00 | 58 | 1013.2 |
| 20260509163634 | 72 | 202 | 6.1 | 11.3 | 0.00 | 0.00 | 0.00 | 59 | 1013.2 |
| 20260509163129 | 71 | 131 | 4.3 | 8.7 | 0.00 | 0.00 | 0.00 | 59 | 1013.2 |